![]() |
EMODnet Physics ERDDAP
Easier access to scientific data |
log in|
Brought to you by EMODnet Physics |
| Dataset Title: | NDBC - Collection of dew point temperature (DEWT) TimeSeries - IN SITU MultiPointTimeSeriesObservation
|
| Institution: | NDBC (Dataset ID: TS_DEWT_NDBC) |
| Information: | Summary
| License
| FGDC
| ISO 19115
| Metadata
| Background
| Subset
| Data Access Form
| Make a graph
|
| Name | Last modified | Size | Description | |
|---|---|---|---|---|
| Parent Directory | - | - | ||
| EROA2_TS_DEWT_012007.nc | 27-Oct-2024 08:48 | 429569 | ||
| EROA2_TS_DEWT_012008.nc | 27-Oct-2024 08:48 | 429569 | ||
| EROA2_TS_DEWT_012009.nc | 27-Oct-2024 08:48 | 429573 | ||
| EROA2_TS_DEWT_012010.nc | 27-Oct-2024 08:49 | 429535 | ||
| EROA2_TS_DEWT_012011.nc | 27-Oct-2024 08:49 | 429573 | ||
| EROA2_TS_DEWT_012012.nc | 27-Oct-2024 08:49 | 419399 | ||
| EROA2_TS_DEWT_012013.nc | 27-Oct-2024 08:49 | 429568 | ||
| EROA2_TS_DEWT_012014.nc | 27-Oct-2024 08:49 | 429573 | ||
| EROA2_TS_DEWT_012015.nc | 27-Oct-2024 08:49 | 429570 | ||
| EROA2_TS_DEWT_012016.nc | 27-Oct-2024 08:49 | 429572 | ||
| EROA2_TS_DEWT_012017.nc | 27-Oct-2024 08:49 | 429568 | ||
| EROA2_TS_DEWT_012018.nc | 27-Oct-2024 08:49 | 429572 | ||
| EROA2_TS_DEWT_012019.nc | 27-Oct-2024 08:49 | 1111982 | ||
| EROA2_TS_DEWT_012020.nc | 27-Oct-2024 08:49 | 1108367 | ||
| EROA2_TS_DEWT_012021.nc | 27-Oct-2024 08:49 | 994869 | ||
| EROA2_TS_DEWT_012022.nc | 27-Oct-2024 08:49 | 994916 | ||
| EROA2_TS_DEWT_012023.nc | 27-Oct-2024 08:49 | 423065 | ||
| EROA2_TS_DEWT_012024.nc | 27-Oct-2024 08:49 | 994679 | ||
| EROA2_TS_DEWT_012025.nc | 07-Feb-2025 13:14 | 4825743 | ||
| EROA2_TS_DEWT_022007.nc | 27-Oct-2024 08:50 | 429681 | ||
| EROA2_TS_DEWT_022008.nc | 27-Oct-2024 08:50 | 429680 | ||
| EROA2_TS_DEWT_022009.nc | 27-Oct-2024 08:50 | 429681 | ||
| EROA2_TS_DEWT_022010.nc | 27-Oct-2024 08:50 | 429662 | ||
| EROA2_TS_DEWT_022011.nc | 27-Oct-2024 08:50 | 429671 | ||
| EROA2_TS_DEWT_022012.nc | 27-Oct-2024 08:50 | 429676 | ||
| EROA2_TS_DEWT_022013.nc | 27-Oct-2024 08:50 | 429689 | ||
| EROA2_TS_DEWT_022014.nc | 27-Oct-2024 08:50 | 437958 | ||
| EROA2_TS_DEWT_022015.nc | 27-Oct-2024 08:50 | 450890 | ||
| EROA2_TS_DEWT_022016.nc | 27-Oct-2024 08:50 | 429688 | ||
| EROA2_TS_DEWT_022017.nc | 27-Oct-2024 08:50 | 429703 | ||
| EROA2_TS_DEWT_022018.nc | 27-Oct-2024 08:50 | 429690 | ||
| EROA2_TS_DEWT_022019.nc | 27-Oct-2024 08:50 | 429689 | ||
| EROA2_TS_DEWT_022020.nc | 27-Oct-2024 08:50 | 429702 | ||
| EROA2_TS_DEWT_022021.nc | 27-Oct-2024 08:50 | 429371 | ||
| EROA2_TS_DEWT_022022.nc | 27-Oct-2024 08:50 | 429695 | ||
| EROA2_TS_DEWT_022023.nc | 27-Oct-2024 08:50 | 449848 | ||
| EROA2_TS_DEWT_022024.nc | 16-Sep-2024 16:51 | 450685 | ||
| EROA2_TS_DEWT_022025.nc | 04-Mar-2025 09:42 | 429696 | ||
| EROA2_TS_DEWT_032007.nc | 27-Oct-2024 08:50 | 429696 | ||
| EROA2_TS_DEWT_032008.nc | 27-Oct-2024 08:50 | 429914 | ||
| EROA2_TS_DEWT_032009.nc | 27-Oct-2024 08:51 | 429912 | ||
| EROA2_TS_DEWT_032010.nc | 27-Oct-2024 08:51 | 429912 | ||
| EROA2_TS_DEWT_032011.nc | 27-Oct-2024 08:51 | 429896 | ||
| EROA2_TS_DEWT_032012.nc | 27-Oct-2024 08:51 | 429912 | ||
| EROA2_TS_DEWT_032013.nc | 27-Oct-2024 08:51 | 429909 | ||
| EROA2_TS_DEWT_032014.nc | 27-Oct-2024 08:51 | 429917 | ||
| EROA2_TS_DEWT_032015.nc | 27-Oct-2024 08:51 | 425941 | ||
| EROA2_TS_DEWT_032016.nc | 27-Oct-2024 08:51 | 429911 | ||
| EROA2_TS_DEWT_032017.nc | 27-Oct-2024 08:51 | 429909 | ||
| EROA2_TS_DEWT_032018.nc | 27-Oct-2024 08:51 | 429888 | ||
| EROA2_TS_DEWT_032019.nc | 27-Oct-2024 08:51 | 429914 | ||
| EROA2_TS_DEWT_032020.nc | 27-Oct-2024 08:51 | 429911 | ||
| EROA2_TS_DEWT_032021.nc | 27-Oct-2024 08:51 | 1106801 | ||
| EROA2_TS_DEWT_032022.nc | 27-Oct-2024 08:51 | 1260655 | ||
| EROA2_TS_DEWT_032023.nc | 27-Oct-2024 08:51 | 1143355 | ||
| EROA2_TS_DEWT_042007.nc | 27-Oct-2024 08:52 | 1155343 | ||
| EROA2_TS_DEWT_042008.nc | 27-Oct-2024 08:52 | 1234578 | ||
| EROA2_TS_DEWT_042009.nc | 27-Oct-2024 08:52 | 5542427 | ||
| EROA2_TS_DEWT_042010.nc | 27-Oct-2024 08:52 | 429331 | ||
| EROA2_TS_DEWT_042011.nc | 27-Oct-2024 08:52 | 429345 | ||
| EROA2_TS_DEWT_042012.nc | 27-Oct-2024 08:52 | 429330 | ||
| EROA2_TS_DEWT_042013.nc | 27-Oct-2024 08:52 | 429344 | ||
| EROA2_TS_DEWT_042014.nc | 27-Oct-2024 08:52 | 429311 | ||
| EROA2_TS_DEWT_042015.nc | 27-Oct-2024 08:52 | 429364 | ||
| EROA2_TS_DEWT_042016.nc | 27-Oct-2024 08:52 | 429366 | ||
| EROA2_TS_DEWT_042017.nc | 27-Oct-2024 08:52 | 448229 | ||
| EROA2_TS_DEWT_042018.nc | 27-Oct-2024 08:52 | 449457 | ||
| EROA2_TS_DEWT_042019.nc | 27-Oct-2024 08:52 | 442296 | ||
| EROA2_TS_DEWT_042021.nc | 27-Oct-2024 08:52 | 429363 | ||
| EROA2_TS_DEWT_042022.nc | 27-Oct-2024 08:52 | 429372 | ||
| EROA2_TS_DEWT_042023.nc | 27-Oct-2024 08:52 | 429357 | ||
| EROA2_TS_DEWT_042025.nc | 01-May-2025 05:36 | 429367 | ||
| EROA2_TS_DEWT_052007.nc | 27-Oct-2024 08:52 | 429369 | ||
| EROA2_TS_DEWT_052008.nc | 27-Oct-2024 08:52 | 429362 | ||
| EROA2_TS_DEWT_052009.nc | 27-Oct-2024 08:52 | 449444 | ||
| EROA2_TS_DEWT_052010.nc | 27-Oct-2024 08:53 | 449689 | ||
| EROA2_TS_DEWT_052011.nc | 27-Oct-2024 08:53 | 429357 | ||
| EROA2_TS_DEWT_052012.nc | 27-Oct-2024 08:53 | 429365 | ||
| EROA2_TS_DEWT_052013.nc | 27-Oct-2024 08:53 | 429567 | ||
| EROA2_TS_DEWT_052014.nc | 27-Oct-2024 08:53 | 429573 | ||
| EROA2_TS_DEWT_052015.nc | 27-Oct-2024 08:53 | 429570 | ||
| EROA2_TS_DEWT_052016.nc | 27-Oct-2024 08:53 | 429375 | ||
| EROA2_TS_DEWT_052017.nc | 27-Oct-2024 08:53 | 429573 | ||
| EROA2_TS_DEWT_052018.nc | 27-Oct-2024 08:53 | 429570 | ||
| EROA2_TS_DEWT_052019.nc | 27-Oct-2024 08:53 | 429566 | ||
| EROA2_TS_DEWT_052020.nc | 27-Oct-2024 08:53 | 429570 | ||
| EROA2_TS_DEWT_052021.nc | 27-Oct-2024 08:53 | 429569 | ||
| EROA2_TS_DEWT_052022.nc | 27-Oct-2024 08:53 | 429569 | ||
| EROA2_TS_DEWT_052023.nc | 27-Oct-2024 08:53 | 429571 | ||
| EROA2_TS_DEWT_052025.nc | 16-Aug-2025 08:14 | 429570 | ||
| EROA2_TS_DEWT_062007.nc | 27-Oct-2024 08:53 | 429573 | ||
| EROA2_TS_DEWT_062008.nc | 27-Oct-2024 08:53 | 1105104 | ||
| EROA2_TS_DEWT_062009.nc | 27-Oct-2024 08:53 | 1075856 | ||
| EROA2_TS_DEWT_062010.nc | 27-Oct-2024 08:53 | 917782 | ||
| EROA2_TS_DEWT_062011.nc | 27-Oct-2024 08:54 | 1106743 | ||
| EROA2_TS_DEWT_062012.nc | 27-Oct-2024 08:54 | 994791 | ||
| EROA2_TS_DEWT_062013.nc | 27-Oct-2024 08:54 | 1108148 | ||
| EROA2_TS_DEWT_062014.nc | 27-Oct-2024 08:54 | 4278073 | ||
| EROA2_TS_DEWT_062015.nc | 27-Oct-2024 08:54 | 429685 | ||
| EROA2_TS_DEWT_062016.nc | 27-Oct-2024 08:54 | 429684 | ||
| EROA2_TS_DEWT_062017.nc | 27-Oct-2024 08:54 | 429677 | ||
| EROA2_TS_DEWT_062018.nc | 27-Oct-2024 08:54 | 429679 | ||
| EROA2_TS_DEWT_062019.nc | 27-Oct-2024 08:54 | 429585 | ||
| EROA2_TS_DEWT_062020.nc | 27-Oct-2024 08:54 | 429688 | ||
| EROA2_TS_DEWT_062021.nc | 27-Oct-2024 08:54 | 429694 | ||
| EROA2_TS_DEWT_062022.nc | 27-Oct-2024 08:54 | 449999 | ||
| EROA2_TS_DEWT_062023.nc | 27-Oct-2024 08:54 | 450263 | ||
| EROA2_TS_DEWT_072007.nc | 27-Oct-2024 08:54 | 432469 | ||
| EROA2_TS_DEWT_072008.nc | 27-Oct-2024 08:54 | 429697 | ||
| EROA2_TS_DEWT_072009.nc | 27-Oct-2024 08:54 | 429688 | ||
| EROA2_TS_DEWT_072010.nc | 27-Oct-2024 08:54 | 429505 | ||
| EROA2_TS_DEWT_072011.nc | 27-Oct-2024 08:54 | 429697 | ||
| EROA2_TS_DEWT_072012.nc | 27-Oct-2024 08:54 | 429690 | ||
| EROA2_TS_DEWT_072013.nc | 27-Oct-2024 08:55 | 429700 | ||
| EROA2_TS_DEWT_072014.nc | 27-Oct-2024 08:55 | 429701 | ||
| EROA2_TS_DEWT_072015.nc | 27-Oct-2024 08:55 | 450500 | ||
| EROA2_TS_DEWT_072016.nc | 27-Oct-2024 08:55 | 437172 | ||
| EROA2_TS_DEWT_072017.nc | 27-Oct-2024 08:55 | 429701 | ||
| EROA2_TS_DEWT_072018.nc | 27-Oct-2024 08:55 | 429688 | ||
| EROA2_TS_DEWT_072019.nc | 27-Oct-2024 08:55 | 429917 | ||
| EROA2_TS_DEWT_072020.nc | 27-Oct-2024 08:55 | 429913 | ||
| EROA2_TS_DEWT_072021.nc | 27-Oct-2024 08:55 | 429910 | ||
| EROA2_TS_DEWT_072022.nc | 27-Oct-2024 08:55 | 429917 | ||
| EROA2_TS_DEWT_072023.nc | 27-Oct-2024 08:55 | 429908 | ||
| EROA2_TS_DEWT_082007.nc | 27-Oct-2024 08:55 | 429913 | ||
| EROA2_TS_DEWT_082008.nc | 27-Oct-2024 08:55 | 429913 | ||
| EROA2_TS_DEWT_082009.nc | 27-Oct-2024 08:55 | 422434 | ||
| EROA2_TS_DEWT_082010.nc | 27-Oct-2024 08:55 | 429917 | ||
| EROA2_TS_DEWT_082011.nc | 27-Oct-2024 08:55 | 429913 | ||
| EROA2_TS_DEWT_082012.nc | 27-Oct-2024 08:55 | 429915 | ||
| EROA2_TS_DEWT_082013.nc | 27-Oct-2024 08:55 | 429865 | ||
| EROA2_TS_DEWT_082014.nc | 27-Oct-2024 08:56 | 454495 | ||
| EROA2_TS_DEWT_082015.nc | 27-Oct-2024 08:56 | 1257580 | ||
| EROA2_TS_DEWT_082016.nc | 27-Oct-2024 08:56 | 1143363 | ||
| EROA2_TS_DEWT_082017.nc | 27-Oct-2024 08:56 | 1143231 | ||
| EROA2_TS_DEWT_082018.nc | 27-Oct-2024 08:56 | 1100786 | ||
| EROA2_TS_DEWT_082019.nc | 27-Oct-2024 08:56 | 1143200 | ||
| EROA2_TS_DEWT_082020.nc | 27-Oct-2024 08:56 | 1260151 | ||
| EROA2_TS_DEWT_082021.nc | 27-Oct-2024 08:56 | 429686 | ||
| EROA2_TS_DEWT_082022.nc | 27-Oct-2024 08:56 | 429685 | ||
| EROA2_TS_DEWT_082023.nc | 27-Oct-2024 08:56 | 429684 | ||
| EROA2_TS_DEWT_092007.nc | 27-Oct-2024 08:56 | 427188 | ||
| EROA2_TS_DEWT_092008.nc | 27-Oct-2024 08:56 | 429677 | ||
| EROA2_TS_DEWT_092009.nc | 27-Oct-2024 08:56 | 429698 | ||
| EROA2_TS_DEWT_092010.nc | 27-Oct-2024 08:56 | 429690 | ||
| EROA2_TS_DEWT_092011.nc | 27-Oct-2024 08:56 | 430961 | ||
| EROA2_TS_DEWT_092012.nc | 27-Oct-2024 08:56 | 451255 | ||
| EROA2_TS_DEWT_092013.nc | 27-Oct-2024 08:57 | 429675 | ||
| EROA2_TS_DEWT_092014.nc | 27-Oct-2024 08:57 | 429680 | ||
| EROA2_TS_DEWT_092015.nc | 27-Oct-2024 08:57 | 429699 | ||
| EROA2_TS_DEWT_092016.nc | 27-Oct-2024 08:57 | 429688 | ||
| EROA2_TS_DEWT_092017.nc | 27-Oct-2024 08:57 | 429664 | ||
| EROA2_TS_DEWT_092018.nc | 27-Oct-2024 08:57 | 429696 | ||
| EROA2_TS_DEWT_092019.nc | 27-Oct-2024 08:57 | 429689 | ||
| EROA2_TS_DEWT_092020.nc | 27-Oct-2024 08:57 | 429700 | ||
| EROA2_TS_DEWT_092021.nc | 27-Oct-2024 08:57 | 449149 | ||
| EROA2_TS_DEWT_092022.nc | 27-Oct-2024 08:57 | 429691 | ||
| EROA2_TS_DEWT_092023.nc | 27-Oct-2024 08:57 | 429696 | ||
| EROA2_TS_DEWT_102006.nc | 27-Oct-2024 08:57 | 429077 | ||
| EROA2_TS_DEWT_102007.nc | 27-Oct-2024 08:57 | 429896 | ||
| EROA2_TS_DEWT_102008.nc | 27-Oct-2024 08:57 | 429912 | ||
| EROA2_TS_DEWT_102009.nc | 27-Oct-2024 08:57 | 429914 | ||
| EROA2_TS_DEWT_102010.nc | 27-Oct-2024 08:57 | 429863 | ||
| EROA2_TS_DEWT_102011.nc | 27-Oct-2024 08:58 | 429913 | ||
| EROA2_TS_DEWT_102012.nc | 27-Oct-2024 08:58 | 429914 | ||
| EROA2_TS_DEWT_102013.nc | 27-Oct-2024 08:58 | 429911 | ||
| EROA2_TS_DEWT_102014.nc | 27-Oct-2024 08:58 | 429915 | ||
| EROA2_TS_DEWT_102015.nc | 27-Oct-2024 08:58 | 429910 | ||
| EROA2_TS_DEWT_102016.nc | 27-Oct-2024 08:58 | 429892 | ||
| EROA2_TS_DEWT_102017.nc | 27-Oct-2024 08:58 | 429917 | ||
| EROA2_TS_DEWT_102018.nc | 27-Oct-2024 08:58 | 429913 | ||
| EROA2_TS_DEWT_102019.nc | 27-Oct-2024 08:58 | 1259241 | ||
| EROA2_TS_DEWT_102020.nc | 27-Oct-2024 08:58 | 1262569 | ||
| EROA2_TS_DEWT_102021.nc | 27-Oct-2024 08:58 | 1143198 | ||
| EROA2_TS_DEWT_102022.nc | 27-Oct-2024 08:58 | 1143128 | ||
| EROA2_TS_DEWT_102023.nc | 27-Oct-2024 08:58 | 1227673 | ||
| EROA2_TS_DEWT_102024.nc | 12-Jan-2025 22:38 | 1143261 | ||
| EROA2_TS_DEWT_112006.nc | 27-Oct-2024 08:58 | 1266024 | ||
| EROA2_TS_DEWT_112007.nc | 27-Oct-2024 08:58 | 429302 | ||
| EROA2_TS_DEWT_112008.nc | 27-Oct-2024 08:58 | 429354 | ||
| EROA2_TS_DEWT_112009.nc | 27-Oct-2024 08:58 | 429349 | ||
| EROA2_TS_DEWT_112010.nc | 27-Oct-2024 08:59 | 429334 | ||
| EROA2_TS_DEWT_112011.nc | 27-Oct-2024 08:59 | 429352 | ||
| EROA2_TS_DEWT_112012.nc | 27-Oct-2024 08:59 | 427746 | ||
| EROA2_TS_DEWT_112013.nc | 27-Oct-2024 08:59 | 428855 | ||
| EROA2_TS_DEWT_112014.nc | 27-Oct-2024 08:59 | 429371 | ||
| EROA2_TS_DEWT_112015.nc | 27-Oct-2024 08:59 | 423196 | ||
| EROA2_TS_DEWT_112016.nc | 27-Oct-2024 08:59 | 449420 | ||
| EROA2_TS_DEWT_112017.nc | 27-Oct-2024 08:59 | 429365 | ||
| EROA2_TS_DEWT_112018.nc | 27-Oct-2024 08:59 | 429342 | ||
| EROA2_TS_DEWT_112019.nc | 27-Oct-2024 08:59 | 429343 | ||
| EROA2_TS_DEWT_112020.nc | 27-Oct-2024 08:59 | 429294 | ||
| EROA2_TS_DEWT_112021.nc | 27-Oct-2024 08:59 | 429352 | ||
| EROA2_TS_DEWT_112022.nc | 27-Oct-2024 09:00 | 429364 | ||
| EROA2_TS_DEWT_112023.nc | 27-Oct-2024 09:00 | 429370 | ||
| EROA2_TS_DEWT_112024.nc | 17-Jan-2025 18:49 | 429359 | ||
| EROA2_TS_DEWT_122006.nc | 27-Oct-2024 09:00 | 449548 | ||
| EROA2_TS_DEWT_122007.nc | 27-Oct-2024 09:00 | 429369 | ||
| EROA2_TS_DEWT_122008.nc | 27-Oct-2024 09:00 | 429361 | ||
| EROA2_TS_DEWT_122009.nc | 27-Oct-2024 09:00 | 423402 | ||
| EROA2_TS_DEWT_122010.nc | 27-Oct-2024 09:00 | 429566 | ||
| EROA2_TS_DEWT_122011.nc | 27-Oct-2024 09:00 | 429573 | ||
| EROA2_TS_DEWT_122012.nc | 27-Oct-2024 09:00 | 429572 | ||
| EROA2_TS_DEWT_122013.nc | 27-Oct-2024 09:00 | 429572 | ||
| EROA2_TS_DEWT_122014.nc | 27-Oct-2024 09:00 | 429571 | ||
| EROA2_TS_DEWT_122015.nc | 27-Oct-2024 09:00 | 429569 | ||
| EROA2_TS_DEWT_122016.nc | 27-Oct-2024 09:00 | 429567 | ||
| EROA2_TS_DEWT_122017.nc | 27-Oct-2024 09:00 | 429571 | ||
| EROA2_TS_DEWT_122018.nc | 27-Oct-2024 09:00 | 429572 | ||
| EROA2_TS_DEWT_122019.nc | 27-Oct-2024 09:00 | 429566 | ||
| EROA2_TS_DEWT_122020.nc | 27-Oct-2024 09:01 | 429569 | ||
| EROA2_TS_DEWT_122021.nc | 27-Oct-2024 09:01 | 429572 | ||
| EROA2_TS_DEWT_122022.nc | 27-Oct-2024 09:01 | 1103647 | ||
| EROA2_TS_DEWT_122023.nc | 27-Oct-2024 09:01 | 1111326 | ||
| EROA2_TS_DEWT_122024.nc | 22-Jan-2025 19:06 | 994869 | ||